Date String (YYYY-MM-DD hh:mm:ss) UTC,Instrument flags,Ambient pressure (hPa),Sample flow (lpm),Bypass flow (lpm),Sample temperature (°C),Ambient temperature (°C),ASC tube jacket temperature (°C),LED temperature (°C),Box temperature (°C),Sample RH (%),Span deviation,Mass concentration (μg/m³),Mass concentration (μg/m³),Mass concentration (μg/m³)
DateTimeUTC,F1_M11,P_M11,Q1_M11,Q2_M11,T1_M11,T2_M11,T3_M11,T4_M11,T5_M11,U1_M11,ZSPAN_M11,X2_M11,X0_M11,X1_M11
2023-01-12 18:00:00,,0833.6,5.01,0.00,24.1,23.0,00.0,32.8,25.9,16.5,-001.0,0011.32,0018.39,0010.86
2023-01-12 18:01:00,,0833.6,5.00,0.00,24.1,23.0,00.0,32.8,26.0,16.8,-000.9,0011.39,0018.41,0010.92
2023-01-12 18:02:00,,0833.6,5.01,0.00,24.1,23.0,00.0,32.8,26.0,16.8,-000.9,0011.43,0018.21,0010.99
2023-01-12 18:03:00,,0833.6,5.00,0.00,24.1,23.0,00.0,32.8,26.0,16.0,-001.0,0011.50,0018.15,0011.07
2023-01-12 18:04:00,,0833.6,5.00,0.00,24.1,23.1,00.0,32.9,26.0,16.4,-001.0,0011.58,0018.46,0011.15
2023-01-12 18:05:00,,0833.6,5.00,0.00,24.1,23.1,00.0,32.9,26.1,16.8,-001.0,0011.55,0018.41,0011.13
2023-01-12 18:06:00,,0833.5,5.00,0.00,24.2,23.1,00.0,32.9,26.1,16.6,-001.0,0011.51,0018.63,0011.07
2023-01-12 18:07:00,,0833.5,5.00,0.00,24.2,23.1,00.0,32.9,26.1,16.4,-000.9,0011.49,0019.19,0011.05
2023-01-12 18:08:00,,0833.6,5.01,0.00,24.2,23.2,00.0,32.9,26.1,16.2,-000.8,0011.49,0018.83,0011.06
2023-01-12 18:09:00,,0833.5,5.01,0.00,24.2,23.2,00.0,32.9,26.1,15.6,-000.8,0011.45,0018.56,0011.04
2023-01-12 18:10:00,,0833.5,4.99,0.00,24.2,23.2,00.0,32.9,26.2,15.9,-000.8,0011.44,0018.46,0011.03
2023-01-12 18:11:00,,0833.4,5.01,0.00,24.2,23.2,00.0,33.0,26.2,16.2,-000.9,0011.47,0018.46,0011.07
2023-01-12 18:12:00,,0833.4,5.00,0.00,24.3,23.2,00.0,33.0,26.2,14.8,-000.8,0011.35,0018.26,0010.99
2023-01-12 18:13:00,,0833.4,5.00,0.00,24.3,23.3,00.0,33.0,26.2,15.4,-001.0,0011.27,0018.34,0010.89
2023-01-12 18:14:00,,0833.4,4.99,0.00,24.3,23.3,00.0,33.0,26.2,16.5,-000.8,0011.34,0018.73,0010.92
2023-01-12 18:15:00,,0833.5,4.99,0.00,24.3,23.3,00.0,33.0,26.3,15.8,-000.6,0011.32,0018.47,0010.91
2023-01-12 18:16:00,,0833.4,5.00,0.00,24.3,23.3,00.0,33.0,26.3,14.6,-000.4,0011.22,0018.38,0010.80
2023-01-12 18:17:00,,0833.4,5.00,0.00,24.3,23.3,00.0,33.1,26.3,13.9,-000.4,0011.06,0017.63,0010.64
2023-01-12 18:18:00,,0833.4,5.01,0.00,24.4,23.4,00.0,33.1,26.3,14.8,-000.6,0010.90,0016.56,0010.49
2023-01-12 18:19:00,,0833.4,5.00,0.00,24.4,23.4,00.0,33.1,26.3,15.8,-000.8,0010.87,0016.52,0010.48
2023-01-12 18:20:00,,0833.4,5.00,0.00,24.4,23.4,00.0,33.1,26.3,15.9,-000.7,0010.86,0016.58,0010.48
2023-01-12 18:21:00,,0833.4,5.01,0.00,24.4,23.4,00.0,33.1,26.4,15.3,-000.6,0010.85,0016.65,0010.47
2023-01-12 18:22:00,,0833.4,4.99,0.00,24.4,23.4,00.0,33.1,26.4,14.9,-000.4,0010.76,0016.47,0010.40
2023-01-12 18:23:00,,0833.5,4.99,0.00,24.5,23.4,00.0,33.2,26.4,14.3,-000.4,0010.71,0016.39,0010.34
2023-01-12 18:24:00,,0833.4,5.00,0.00,24.5,23.5,00.0,33.2,26.4,14.9,-000.2,0010.66,0016.19,0010.31
2023-01-12 18:25:00,,0833.3,5.00,0.00,24.5,23.5,00.0,33.2,26.4,14.9,-000.2,0010.55,0015.75,0010.22
2023-01-12 18:26:00,,0833.3,5.00,0.00,24.5,23.5,00.0,33.2,26.4,15.2,-000.3,0010.48,0015.70,0010.15
2023-01-12 18:27:00,,0833.3,5.01,0.00,24.5,23.5,00.0,33.2,26.4,15.1,-000.4,0010.51,0015.62,0010.20
2023-01-12 18:28:00,,0833.3,5.00,0.00,24.5,23.5,00.0,33.2,26.5,15.5,-000.3,0010.63,0015.75,0010.32
2023-01-12 18:29:00,,0833.2,5.01,0.00,24.6,23.5,00.0,33.3,26.5,15.6,-000.3,0010.81,0015.97,0010.49
2023-01-12 18:30:00,,0833.1,5.00,0.00,24.6,23.6,00.0,33.3,26.5,15.5,-000.3,0010.83,0016.04,0010.50
2023-01-12 18:31:00,,0833.3,5.00,0.00,24.6,23.6,00.0,33.3,26.5,15.2,-000.3,0010.83,0015.99,0010.49
2023-01-12 18:32:00,,0833.3,5.00,0.00,24.6,23.6,00.0,33.3,26.6,14.7,-000.4,0010.82,0015.88,0010.48
2023-01-12 18:33:00,,0833.3,5.01,0.00,24.6,23.6,00.0,33.3,26.6,14.3,-000.5,0010.84,0015.96,0010.49
2023-01-12 18:34:00,,0833.2,4.99,0.00,24.6,23.6,00.0,33.4,26.6,14.2,-000.6,0010.92,0016.07,0010.55
2023-01-12 18:35:00,,0833.2,5.00,0.00,24.6,23.6,00.0,33.4,26.6,13.8,-000.5,0010.92,0016.05,0010.55
2023-01-12 18:36:00,,0833.2,4.99,0.00,24.7,23.6,00.0,33.4,26.6,15.0,-000.6,0010.97,0015.99,0010.62
2023-01-12 18:37:00,,0833.2,5.01,0.00,24.7,23.6,00.0,33.4,26.6,15.1,-000.6,0011.09,0016.15,0010.73
2023-01-12 18:38:00,,0833.1,5.01,0.00,24.7,23.7,00.0,33.4,26.6,15.2,-000.7,0011.16,0016.27,0010.79
2023-01-12 18:39:00,,0833.1,5.00,0.00,24.7,23.7,00.0,33.4,26.6,15.4,-000.9,0011.20,0016.37,0010.85
2023-01-12 18:40:00,,0833.2,5.00,0.00,24.7,23.7,00.0,33.4,26.6,15.5,-001.0,0011.16,0016.32,0010.81
2023-01-12 18:41:00,,0833.1,5.00,0.00,24.7,23.7,00.0,33.5,26.7,16.0,-000.9,0011.20,0016.35,0010.85
2023-01-12 18:42:00,,0833.1,5.00,0.00,24.8,23.7,00.0,33.5,26.7,15.7,-000.7,0011.25,0016.36,0010.92
2023-01-12 18:43:00,,0833.2,5.00,0.00,24.8,23.8,00.0,33.5,26.7,15.8,-000.8,0011.36,0016.48,0011.04
2023-01-12 18:44:00,,0833.2,5.00,0.00,24.8,23.8,00.0,33.5,26.7,15.7,-000.9,0011.56,0016.70,0011.26
2023-01-12 18:45:00,,0833.2,5.00,0.00,24.8,23.8,00.0,33.5,26.7,15.8,-000.9,0011.77,0017.04,0011.47
2023-01-12 18:46:00,,0833.2,5.00,0.00,24.8,23.8,00.0,33.6,26.7,16.0,-000.9,0012.09,0017.58,0011.79
2023-01-12 18:47:00,,0833.2,5.00,0.00,24.9,23.8,00.0,33.6,26.7,16.1,-001.0,0012.36,0018.00,0012.05
2023-01-12 18:48:00,,0833.2,4.99,0.00,24.9,23.8,00.0,33.6,26.7,16.0,-000.9,0012.60,0018.27,0012.28
2023-01-12 18:49:00,,0833.2,5.00,0.00,24.9,23.8,00.0,33.6,26.7,15.8,-000.9,0012.85,0018.62,0012.52
2023-01-12 18:50:00,,0833.2,4.99,0.00,24.9,23.8,00.0,33.6,26.7,15.6,-000.8,0013.07,0019.01,0012.71
2023-01-12 18:51:00,,0833.2,5.00,0.00,24.9,23.8,00.0,33.6,26.7,15.8,-000.8,0013.31,0019.37,0012.93
2023-01-12 18:52:00,,0833.2,4.99,0.00,24.9,23.8,00.0,33.6,26.8,15.2,-000.8,0013.46,0019.62,0013.06
2023-01-12 18:53:00,,0833.2,5.01,0.00,24.9,23.8,00.0,33.6,26.8,16.0,-000.9,0013.79,0020.16,0013.38
2023-01-12 18:54:00,,0833.2,5.01,0.00,24.9,23.8,00.0,33.7,26.8,16.4,-000.8,0014.10,0020.63,0013.67
2023-01-12 18:55:00,,0833.1,5.01,0.00,24.9,23.8,00.0,33.7,26.8,16.4,-000.8,0014.34,0021.00,0013.90
2023-01-12 18:56:00,,0833.2,5.00,0.00,24.9,23.8,00.0,33.7,26.8,16.1,-000.8,0014.51,0021.12,0014.08
2023-01-12 18:57:00,,0833.1,5.00,0.00,24.9,23.8,00.0,33.7,26.8,16.2,-000.7,0014.67,0021.23,0014.24
2023-01-12 18:58:00,,0833.1,5.01,0.00,25.0,23.8,00.0,33.7,26.8,15.5,-000.7,0014.78,0021.38,0014.35
2023-01-12 18:59:00,,0833.0,5.00,0.00,25.0,23.8,00.0,33.7,26.8,15.1,-000.7,0014.80,0021.44,0014.37
